Overview Statistics Trail Chart Weather Telemetry Raw packets
 

This is the latest recevied weather packets stored in our database for station/object KC8SWY-15. If no packets are shown the sender has not sent any weather packets the latest 10 day(s).

<< 20 21 22 23 24 25 26 >>
Time Temp. Humidity Pressure Rain* Wind** Luminosity Snow
1788548427 23.33° C 89% 1012.9 hPa 0 mm - - -
1788548127 22.78° C 89% 1013.2 hPa 0 mm - - -
1788547828 22.78° C 91% 1013.4 hPa 0 mm - - -
1788547527 22.78° C 91% 1013.6 hPa 0 mm - - -
1788547228 22.22° C 91% 1013.6 hPa 0 mm - - -
1788546928 21.67° C 92% 1013.6 hPa 0 mm - - -
1788546628 21.67° C 92% 1013.4 hPa 0 mm - - -
1788546328 21.67° C 92% 1013.2 hPa 0 mm - - -
1788546028 21.11° C 92% 1013 hPa 0 mm - - -
1788545728 21.11° C 92% 1012.8 hPa 0.25 mm - - -
1788545428 21.11° C 92% 1012.5 hPa 0.25 mm - - -
1788545128 21.11° C 92% 1012.7 hPa 0.25 mm - - -
1788544828 21.11° C 93% 1012.7 hPa 0.51 mm - - -
1788544528 20.56° C 93% 1013.1 hPa 0.51 mm - - -
1788544228 20.56° C 93% 1013.2 hPa 0.51 mm - - -
1788543928 20.56° C 93% 1013.7 hPa 0.51 mm - - -
1788543628 20.56° C 94% 1013.5 hPa 0.51 mm - - -
1788543328 20.56° C 94% 1013.6 hPa 0.51 mm - - -
1788543028 20.56° C 94% 1013.8 hPa 1.02 mm - - -
1788542728 20.56° C 94% 1013.8 hPa 2.54 mm - - -
1788542428 20.56° C 94% 1013.8 hPa 6.6 mm - - -
1788542128 20.56° C 94% 1013.7 hPa 7.87 mm - - -
1788541828 20.56° C 94% 1013.7 hPa 7.87 mm - - -
1788541528 20° C 94% 1013.1 hPa 7.87 mm - - -
1788541277 20.56° C 94% 1013.7 hPa 7.62 mm - - -

* Rain latest hour (hover to see other rain measurements)
** Current wind speed in m/s (hover to see current wind gust speed)